STARLINK-35162

Last updated on Tue Oct 14 2025 00:02:05 GMT+0000 (Coordinated Universal Time)

1 65613U 25207X 25286.58341435 -.01112735 00000+0 -30351-1 0 9997 2 65613 97.6037 350.0822 0001154 111.2379 307.9967 15.40140292 5981

Satellite not in orbit

STARLINK-35162